Find Starlink 33808

NORAD ID: 63767 Int'l Des: 2025-089 Owner: SPXS Country: US Constellation: starlink operational
LEOCIRCULAR

現在のビュー

3D地球を読み込み中...

About Starlink 33808

Starlink 33808 (NORAD 63767) is a starlink constellation satellite (v2 mini) launched Apr 29, 2025 by SPXS of US. It operates in LEO, CIRCULAR orbit with a mass of 575.00 kg.

Starlink 33808について

説明を読み込み中...

次回通過

Passes for default location (London). Set your location on the main map for personalized predictions.

高度履歴

Loading altitude history...

軌道要素

1 63767U 25089S 26171.38629800 .00006086 00000-0 23047-3 0 9995
2 63767 42.9986 185.2565 0001400 269.3217 90.7474 15.27585743 64666
Epoch: Jun 20, 2026 • Age: 49 hours

現在のステータス

高度 486.6 km
速度 7.63 km/s
衛星直下点 41.37°N, 179.37°E
打ち上げ日 Apr 29, 2025
運用期間 1.1 years
タイプ internet

技術仕様

分類 Payload
質量 575.00 kg
乾燥質量 530.00 kg
総質量 575.00 kg
長さ 0.30 m
直径 4.10 m
スパン 29.00 m
形状 Box + pan
製造者 SPXS
バスタイプ Starlink V2MO
フェーズステータス In Orbit
所有者/国 SPXS/US

Most Searched